Regional Weather Roundup
Issued by NWS

Home | Current Version | Previous Version | Text Only | Print | Product List | Glossary On
Versions: 1 2 3 4 5 6 7 8 9 10 11 12 13 14 15 16 17 18 19 20 21 22 23 24 25 26 27 28 29 30 31 32 33 34 35 36 37 38 39 40 41 42 43 44 45 46 47 48 49 50
000
ASUS43 KDMX 271807
RWRIA

WEATHER ROUNDUP FOR IOWA
NATIONAL WEATHER SERVICE DES MOINES IA
100 PM CDT THU AUG 27 2015

NOTE: "FAIR" INDICATES FEW OR NO CLOUDS BELOW 12,000 FEET WITH NO
SIGNIFICANT WEATHER AND/OR OBSTRUCTIONS TO VISIBILITY.

* - THESE STATIONS ARE NOT NWS STATIONS...THUS NOT UNDER NWS
QUALITY CONTROL.  THEY ALSO DO NOT REPORT WEATHER SUCH
AS PRECIPITATION OR FOG.

IAZ001>003-012>014-020>022-031>034-043>046-271900-
   NORTHWEST IOWA

CITY           SKY/WX    TMP DP  RH WIND       PRES   REMARKS
CARROLL *      SUNNY     66  61  82 S12G18    30.06R
CHEROKEE *     CLOUDY    66  64  93 S15G25    30.00F
DENISON *      SUNNY     68  61  77 S20G30    30.01F
LE MARS *      SUNNY     75  63  64 S22G31    30.00F
ORANGE CITY *  SUNNY     72  64  78 S14G21    30.00F
SHELDON *      MOSUNNY   70  64  83 S7        30.03R
SIOUX CITY     PTSUNNY   72  62  71 SE16G29   30.00F
6HR MIN TEMP:  63; 6HR MAX TEMP:  72; 6HR PCP:  0.13;

SPENCER        CLOUDY    68  60  75 S3        30.04R
6HR MIN TEMP:  58; 6HR MAX TEMP:  69; 6HR PCP:  0.04;

STORM LAKE *   SUNNY     64  61  88 S15       30.04R
$$

IAZ055>058-069>071-079>083-090>094-271900-
   SOUTHWEST IOWA

CITY           SKY/WX    TMP DP  RH WIND       PRES   REMARKS
ATLANTIC *     SUNNY     70  61  73 S14G21    30.06F
AUDUBON *      SUNNY     66  61  82 S13G21    30.06F
CLARINDA *     SUNNY     75  64  69 S10G22    30.07F
COUNCIL BLFS * SUNNY     75  64  69 SE17G28   30.02F
CRESTON *      SUNNY     66  61  82 S10       30.13S
HARLAN  *      SUNNY     72  70  94 S18       30.07F
LAMONI         LGT RAIN  65  60  84 E12G24    30.08F
6HR MIN TEMP:  59; 6HR MAX TEMP:  67; 6HR PCP:  0.01;

RED OAK *      SUNNY     75  64  69 SE10      30.06F
SHENANDOAH *   SUNNY     75  64  69 SE16G22   30.04F
$$

IAZ047>049-059>061-072>074-084-271900-
   CENTRAL IOWA

CITY           SKY/WX    TMP DP  RH WIND       PRES   REMARKS
AMES           LGT RAIN  63  59  87 SE17G24   30.05F
6HR MIN TEMP:  52; 6HR MAX TEMP:  63; 6HR PCP:  0.02;

ANKENY *       LGT RAIN  64  61  88 SE10      30.09F
CHARITON *     SUNNY     70  59  68 SE9       30.12F
DES MOINES     LGT RAIN  66  59  78 E14       30.08F
6HR MIN TEMP:  59; 6HR MAX TEMP:  68; 6HR PCP:  0.03;

GRINNELL*      CLOUDY    70  59  68 S8        30.15F
KNOXVILLE *    SUNNY     70  61  73 SE7       30.13F
MARSHALLTOWN   CLOUDY    68  60  75 SE10      30.11F
6HR MIN TEMP:  52; 6HR MAX TEMP:  68;

PELLA *        CLOUDY    70  64  81 SE6       30.15F
PERRY *          N/A     64  61  88 S9G20     30.02F
$$

IAZ004>006-015-016-023>025-035-036-271900-
   NORTH CENTRAL IOWA

CITY           SKY/WX    TMP DP  RH WIND       PRES   REMARKS
ALGONA *       SUNNY     66  59  77 SE9       30.05R
CLARION *      SUNNY     66  59  77 S14G21    30.05R
ESTHERVILLE    CLOUDY    66  60  81 S9        30.05R
6HR MIN TEMP:  55; 6HR MAX TEMP:  66;

FORT DODGE *   CLOUDY    64  55  72 S15       30.00S
MASON CITY     CLOUDY    70  58  65 SE15      30.07F
6HR MIN TEMP:  52; 6HR MAX TEMP:  71;

FOREST CITY *  SUNNY     66  55  68 SE12G17   30.05R
IOWA FALLS *     N/A     68  59  73 SE16G22   30.04F
$$

IAZ007>011-017>019-026>030-037>042-050>054-066-271900-
   NORTHEAST IOWA

CITY           SKY/WX    TMP DP  RH WIND       PRES   REMARKS
CEDAR RAPIDS   CLOUDY    70  61  73 S9        30.17F
6HR MIN TEMP:  54; 6HR MAX TEMP:  70;

CHARLES CITY * SUNNY     72  61  68 S12G18    30.10F
CLINTON *      PTSUNNY   72  59  64 S7        30.20F
DECORAH *      SUNNY     72  57  60 VRB7G15   30.13F
DUBUQUE        PTSUNNY   71  58  63 S10       30.18F
6HR MIN TEMP:  55; 6HR MAX TEMP:  71;

MONTICELLO *   MOSUNNY   73  61  64 VRB5      30.17F
OELWEIN *      SUNNY     72  59  64 S13       30.16F
WATERLOO       CLOUDY    73  58  59 S12       30.11F
6HR MIN TEMP:  51; 6HR MAX TEMP:  74;

$$

IAZ064-065-067-068-078-271900-
   EAST CENTRAL IOWA

CITY           SKY/WX    TMP DP  RH WIND       PRES   REMARKS
DAVENPORT      PTSUNNY   72  59  63 S7        30.18F
6HR MIN TEMP:  55; 6HR MAX TEMP:  72;

IOWA CITY      CLOUDY    72  60  66 S8        30.20S
6HR MIN TEMP:  55; 6HR MAX TEMP:  72;

MT. PLEASANT * CLOUDY    74  55  52 S6        30.19F
MUSCATINE *    SUNNY     73  59  60 SW7G14    30.19F
QUAD CITIES    PTSUNNY   72  59  63 S5        30.17F
6HR MIN TEMP:  54; 6HR MAX TEMP:  72;

$$

IAZ062-063-075>077-085>089-095>099-271900-
   SOUTHEAST IOWA

CITY           SKY/WX    TMP DP  RH WIND       PRES   REMARKS
BURLINGTON     CLOUDY    71  60  68 VRB3      30.19F
6HR MIN TEMP:  56; 6HR MAX TEMP:  71;

FAIRFIELD *    SUNNY     72  59  64 VRB6G12   30.19F
FORT MADISON * SUNNY     72  61  68 SW3       30.20F
KEOKUK *       SUNNY     72  59  64 VRB8      30.18F HAZE
OSKALOOSA *      N/A     71  60  67 S6        30.17F
CENTERVILLE *  SUNNY     70  61  73 S9        30.18F
OTTUMWA        CLOUDY    71  61  70 S8        30.15F
6HR MIN TEMP:  57; 6HR MAX TEMP:  71;

WASHINGTON *     N/A    N/A N/A N/A MISG        N/A
$$

ABBREVIATIONS USED IN REMARKS
   TC - TEMPERATURES IN CELSIUS
  WCI - WIND CHILL INDEX
   HX - HEAT INDEX
  VSB - VISIBILITY
$$



USA.gov is the U.S. government's official web portal to all federal, state and local government web resources and services.